Location: Unspecified
(0.0000°N, 0.0000°E)
Time: 14:54:49
(UTC+00:00)

Envisat - Pass Details

Date: 30 November 2020
Orbit: 764 x 766 km, 98.1° (Epoch: 28 November)

Event Time Altitude Azimuth Distance (km) Brightness Sun altitude
Rises 18:39:53 0° 206° (SSW) 3,229 7.0 -11.8°
Reaches altitude 10° 18:43:47 10° 236° (SW) 2,299 6.9 -12.7°
Maximum altitude 18:45:36 12° 257° (WSW) 2,166 6.7 -13.1°
Drops below altitude 10° 18:47:26 10° 279° (W) 2,296 6.4 -13.6°
Sets 18:51:20 0° 309° (NW) 3,217 6.6 -14.5°
